Air Resources Laboratory banner image
Air Resources Laboratory web site National Oceanic and Atmospheric Administration (NOAA)

sd roundup


Office: FSD

ASUS43 KFSD 171102
RWRFSD

WEATHER ROUNDUP FOR SE SOUTH DAKOTA/SW MINNESOTA/NW IOWA
NATIONAL WEATHER SERVICE SIOUX FALLS SD
500 AM CST SUN DEC 17 2017

NOTE: "FAIR" INDICATES FEW OR NO CLOUDS BELOW 12,000 FEET WITH NO
SIGNIFICANT WEATHER AND OR OBSTRUCTIONS TO VISIBILITY.


SDZ038>040-050-052>070-171200-
SOUTHEAST SOUTH DAKOTA

CITY           SKY/WX    TMP DP  RH WIND       PRES   REMARKS
BROOKINGS      CLOUDY    26  26 100 N3        30.05  FOG
CHAMBERLAIN    CLOUDY    32  32 100 CALM      30.06R
HURON          CLOUDY    27  27 100 MISG      30.06S FOG
MADISON        CLOUDY    27  27 100 N6        30.03F WCI  20
MITCHELL       CLOUDY    27  26  96 NW5       30.06F WCI  22
SIOUX FALLS    CLOUDY    25  23  92 N7        30.02F FOG     WCI  17
WINNER         CLOUDY    32  29  88 W5        30.05R WCI  27
YANKTON        CLOUDY    25  23  92 NW5       30.04R WCI  19
$$

MNZ071-072-080-081-089-090-097-098-171200-
SOUTHWEST MINNESOTA

CITY           SKY/WX    TMP DP  RH WIND       PRES   REMARKS
FAIRMONT       CLOUDY    25  23  92 N12       30.05F FOG     WCI  14
JACKSON        SNOW      27  25  93 NE12      30.02F VSB 1/4 WCI  16
LUVERNE        CLOUDY    25  23  93 NE8       30.02F FOG     WCI  16
MARSHALL       CLOUDY    25  24  96 N3        30.07S FOG
MONTEVIDEO     CLOUDY    27  27 100 E3        30.08S FOG
PIPESTONE      PTCLDY    21  21 100 NE3       30.02F FOG
REDWOOD FALLS  CLOUDY    26  24  92 E3        30.08S FOG
WINDOM         HAZE      25  16  68 N6        30.03F VSB 1/4 WCI  18
WORTHINGTON    SNOW      25  24  96 N10       30.02F VSB 1/4 WCI  15
$$

IAZ001>003-012>014-020>022-031-032-NEZ013-014-SDZ071-171200-
NORTHWEST IOWA

CITY           SKY/WX    TMP DP  RH WIND       PRES   REMARKS
CHEROKEE       CLOUDY    27  27 100 NE6       30.02S FOG     WCI  20
ESTHERVILLE    CLOUDY    23  23 100 NE12      30.03S FOG     WCI  12
LE MARS        CLOUDY    27  25  93 NE7       30.02R WCI  19
ORANGE CITY    CLOUDY    27  27 100 NE5       30.00S FOG     WCI  21
SHELDON        FOG       25  25 100 NE12      30.00S VSB 1/2 WCI  14
SIOUX CITY     PTCLDY    26  24  92 CALM      30.04R
SPENCER        FOG       27  26  96 NE14      30.02F VSB 1   WCI  16
STORM LAKE     FOG       27  27 100 NE20      30.00R VSB 1/4 WCI  13
$$

ABBREVIATIONS USED IN REMARKS
   TC - TEMPERATURE IN CELSIUS
  WCI - WIND CHILL INDEX
   HX - HEAT INDEX
  VSB - VISIBILITY



ASUS43 KFSD 171102
RWRSD

WEATHER ROUNDUP FOR SOUTH DAKOTA
NATIONAL WEATHER SERVICE SIOUX FALLS SD
500 AM CST SUN DEC 17 2017

NOTE: "FAIR" INDICATES FEW OR NO CLOUDS BELOW 12,000 FEET WITH NO
SIGNIFICANT WEATHER AND/OR OBSTRUCTIONS TO VISIBILITY.


SDZ001>005-009-010-012>017-171200-
NORTHWEST AND NORTH CENTRAL SOUTH DAKOTA

CITY           SKY/WX    TMP DP  RH WIND       PRES   REMARKS
BUFFALO          N/A     26  22  84 W5        29.93F WCI  20
FAITH            N/A     25  23  92 W3        30.03S
MOBRIDGE       CLOUDY    28  24  85 N3        30.02S
$$

SDZ012>016-024>037-041>051-057-063-072>074-171200-
SOUTHWEST AND SOUTH CENTRAL SOUTH DAKOTA

CITY           SKY/WX    TMP DP  RH WIND       PRES   REMARKS
RAPID CTY ARPT CLOUDY    29  26  89 N3        30.02F
PIERRE         CLOUDY    29  28  96 CALM      30.04F
CUSTER         CLOUDY    23  18  81 CALM      29.93F
ELLSWORTH AFB  CLOUDY    29  29 100 N6        30.01F WCI  23
PHILIP         CLOUDY    31  28  89 W3        30.04F
PINE RIDGE     CLOUDY    30  28  92 CALM      30.03S
SPEARFISH      CLOUDY    27  27 100 CALM      29.99F FOG
WINNER         CLOUDY    32  29  88 W5        30.05R WCI  27
$$

SDZ004>011-016>023-039-040-171200-
NORTHEAST SOUTH DAKOTA

CITY           SKY/WX    TMP DP  RH WIND       PRES   REMARKS
ABERDEEN       PTCLDY    22  22 100 CALM      30.06S
WATERTOWN      CLOUDY    27  27 100 CALM      30.03F
BROOKINGS      CLOUDY    26  26 100 N3        30.05  FOG
SISSETON         N/A     28  27  96 SE5       30.05F WCI  23
$$

SDZ017-020-022-023-036>040-048>070-171200-
SOUTHEAST SOUTH DAKOTA

CITY           SKY/WX    TMP DP  RH WIND       PRES   REMARKS
SIOUX FALLS    CLOUDY    25  23  92 N7        30.02F FOG     WCI  17
HURON          CLOUDY    27  27 100 MISG      30.06S FOG
CHAMBERLAIN    CLOUDY    32  32 100 CALM      30.06R
MITCHELL       CLOUDY    27  26  96 NW5       30.06F WCI  22
YANKTON        CLOUDY    25  23  92 NW5       30.04R WCI  19
$$

ABBREVIATIONS USED IN REMARKS
   TC - TEMPERATURE IN CELSIUS
  WCI - WIND CHILL INDEX
   HX - HEAT INDEX
  VSB - VISIBILITY



ASUS43 KFSD 171110
RWRFSD

WEATHER ROUNDUP FOR SE SOUTH DAKOTA/SW MINNESOTA/NW IOWA
NATIONAL WEATHER SERVICE SIOUX FALLS SD
500 AM CST SUN DEC 17 2017

NOTE: "FAIR" INDICATES FEW OR NO CLOUDS BELOW 12,000 FEET WITH NO
SIGNIFICANT WEATHER AND OR OBSTRUCTIONS TO VISIBILITY.


SDZ038>040-050-052>070-171200-
SOUTHEAST SOUTH DAKOTA

CITY           SKY/WX    TMP DP  RH WIND       PRES   REMARKS
BROOKINGS      CLOUDY    27  27 100 CALM      30.04  FOG
CHAMBERLAIN    CLOUDY    32  32 100 CALM      30.06R
HURON          CLOUDY    27  27 100 MISG      30.06S FOG
MADISON        CLOUDY    27  27 100 N6        30.03F WCI  20
MITCHELL       CLOUDY    27  26  96 NW5       30.06F WCI  22
SIOUX FALLS    CLOUDY    25  23  92 N7        30.02F FOG     WCI  17
WINNER         CLOUDY    32  30  92 W5        30.05R WCI  27
YANKTON        CLOUDY    25  23  92 NW5       30.04R WCI  19
$$

MNZ071-072-080-081-089-090-097-098-171200-
SOUTHWEST MINNESOTA

CITY           SKY/WX    TMP DP  RH WIND       PRES   REMARKS
FAIRMONT       CLOUDY    25  23  92 N12       30.05F FOG     WCI  14
JACKSON        SNOW      27  25  93 NE12      30.02F VSB 1/4 WCI  16
LUVERNE        CLOUDY    25  23  93 NE8       30.02F FOG     WCI  16
MARSHALL       CLOUDY    25  24  96 N3        30.07S FOG
MONTEVIDEO     CLOUDY    27  27 100 E3        30.08S FOG
PIPESTONE      PTCLDY    21  21 100 NE3       30.02F FOG
REDWOOD FALLS  CLOUDY    26  24  92 E3        30.08S FOG
TRACY          CLOUDY    25  25 100 N3        30.05S FOG
WINDOM         HAZE      25  16  68 N6        30.03F VSB 1/4 WCI  18
WORTHINGTON    SNOW      25  24  96 N10       30.02F VSB 1/4 WCI  15
$$

IAZ001>003-012>014-020>022-031-032-NEZ013-014-SDZ071-171200-
NORTHWEST IOWA

CITY           SKY/WX    TMP DP  RH WIND       PRES   REMARKS
CHEROKEE       CLOUDY    27  27 100 NE6       30.02S FOG     WCI  20
ESTHERVILLE    CLOUDY    23  23 100 NE12      30.03S FOG     WCI  12
LE MARS        CLOUDY    27  25  93 NE7       30.02R WCI  19
ORANGE CITY    CLOUDY    27  27 100 NE5       30.00S FOG     WCI  21
SHELDON        FOG       25  25 100 NE12      30.00S VSB 1/2 WCI  14
SIOUX CITY     PTCLDY    24  22  91 CALM      30.04R
SPENCER        FOG       27  26  96 NE14      30.02F VSB 1   WCI  16
STORM LAKE     FOG       27  27 100 NE20      30.00R VSB 1/4 WCI  13
$$

ABBREVIATIONS USED IN REMARKS
   TC - TEMPERATURE IN CELSIUS
  WCI - WIND CHILL INDEX
   HX - HEAT INDEX
  VSB - VISIBILITY



ASUS43 KFSD 171110
RWRSD

WEATHER ROUNDUP FOR SOUTH DAKOTA
NATIONAL WEATHER SERVICE SIOUX FALLS SD
500 AM CST SUN DEC 17 2017

NOTE: "FAIR" INDICATES FEW OR NO CLOUDS BELOW 12,000 FEET WITH NO
SIGNIFICANT WEATHER AND/OR OBSTRUCTIONS TO VISIBILITY.


SDZ001>005-009-010-012>017-171200-
NORTHWEST AND NORTH CENTRAL SOUTH DAKOTA

CITY           SKY/WX    TMP DP  RH WIND       PRES   REMARKS
BUFFALO          N/A     26  22  84 W5        29.93F WCI  20
FAITH            N/A     25  23  92 W3        30.03S
MOBRIDGE       CLOUDY    28  24  85 N3        30.02S
$$

SDZ012>016-024>037-041>051-057-063-072>074-171200-
SOUTHWEST AND SOUTH CENTRAL SOUTH DAKOTA

CITY           SKY/WX    TMP DP  RH WIND       PRES   REMARKS
RAPID CTY ARPT CLOUDY    29  26  89 N3        30.02F
PIERRE         CLOUDY    29  28  96 CALM      30.04F
CUSTER         CLOUDY    23  18  81 CALM      29.93F
ELLSWORTH AFB  CLOUDY    29  29 100 N6        30.01F WCI  23
PHILIP         CLOUDY    31  28  89 W3        30.04F
PINE RIDGE     CLOUDY    30  28  92 CALM      30.03S
SPEARFISH      CLOUDY    27  27 100 CALM      29.99F FOG
WINNER         CLOUDY    32  30  92 W5        30.05R WCI  27
$$

SDZ004>011-016>023-039-040-171200-
NORTHEAST SOUTH DAKOTA

CITY           SKY/WX    TMP DP  RH WIND       PRES   REMARKS
ABERDEEN       PTCLDY    22  22 100 CALM      30.06S
WATERTOWN      CLOUDY    27  27 100 CALM      30.03F
BROOKINGS      CLOUDY    27  27 100 CALM      30.04  FOG
SISSETON         N/A     28  27  96 SE5       30.05F WCI  23
$$

SDZ017-020-022-023-036>040-048>070-171200-
SOUTHEAST SOUTH DAKOTA

CITY           SKY/WX    TMP DP  RH WIND       PRES   REMARKS
SIOUX FALLS    CLOUDY    25  23  92 N7        30.02F FOG     WCI  17
HURON          CLOUDY    27  27 100 MISG      30.06S FOG
CHAMBERLAIN    CLOUDY    32  32 100 CALM      30.06R
MITCHELL       CLOUDY    27  26  96 NW5       30.06F WCI  22
YANKTON        CLOUDY    25  23  92 NW5       30.04R WCI  19
$$

ABBREVIATIONS USED IN REMARKS
   TC - TEMPERATURE IN CELSIUS
  WCI - WIND CHILL INDEX
   HX - HEAT INDEX
  VSB - VISIBILITY